| time (UTC) | temp F | wind direction | speed MPH | gust MPH | rain 1hr in | rain 24hr in | rain mn in | humidity % | barometer mb |
| 20260509063032 | 55 | 53 | 4.0 | 9.0 | 0.00 | 0.00 | 0.00 | 49 | 1012.1 |
| 20260509061529 | 55 | 57 | 7.0 | 12.0 | 0.00 | 0.00 | 0.00 | 49 | 1011.9 |
| 20260509060036 | 55 | 32 | 9.0 | 12.0 | 0.00 | 0.00 | 0.00 | 49 | 1011.8 |
| 20260509054531 | 55 | 28 | 5.0 | 8.0 | 0.00 | 0.00 | 0.00 | 47 | 1011.9 |
| 20260509053032 | 55 | 293 | 4.0 | 8.0 | 0.00 | 0.00 | 0.00 | 43 | 1011.9 |
| 20260509051529 | 56 | 288 | 5.0 | 7.0 | 0.00 | 0.00 | 0.00 | 41 | 1011.5 |
| 20260509050044 | 57 | 316 | 5.0 | 11.0 | 0.00 | 0.00 | 0.00 | 37 | 1011.2 |
| 20260509044531 | 58 | 5 | 10.0 | 13.0 | 0.00 | 0.00 | 0.00 | 36 | 1010.9 |
| 20260509043030 | 59 | 22 | 12.0 | 16.0 | 0.00 | 0.00 | 0.00 | 34 | 1010.7 |
| 20260509041532 | 58 | 318 | 7.0 | 10.0 | 0.00 | 0.00 | 0.00 | 34 | 1010.5 |
| 20260509040031 | 59 | 344 | 8.0 | 10.0 | 0.00 | 0.00 | 0.00 | 33 | 1010.2 |
| 20260509034532 | 60 | 5 | 8.0 | 11.0 | 0.00 | 0.00 | 0.00 | 31 | 1010.0 |
| 20260509033029 | 61 | 14 | 10.0 | 14.0 | 0.00 | 0.00 | 0.00 | 30 | 1009.9 |
| 20260509031535 | 61 | 5 | 8.0 | 10.0 | 0.00 | 0.00 | 0.00 | 29 | 1009.7 |
| 20260509030038 | 62 | 11 | 8.0 | 10.0 | 0.00 | 0.00 | 0.00 | 29 | 1009.3 |
| 20260509024537 | 63 | 17 | 9.0 | 12.0 | 0.00 | 0.00 | 0.00 | 28 | 1009.1 |
| 20260509023033 | 64 | 22 | 10.0 | 14.0 | 0.00 | 0.00 | 0.00 | 27 | 1009.0 |
| 20260509021530 | 66 | 21 | 11.0 | 15.0 | 0.00 | 0.00 | 0.00 | 26 | 1008.8 |
| 20260509020031 | 67 | 16 | 12.0 | 19.0 | 0.00 | 0.00 | 0.00 | 25 | 1008.8 |
| 20260509014532 | 68 | 9 | 12.0 | 22.0 | 0.00 | 0.00 | 0.00 | 25 | 1008.6 |
| 20260509013036 | 68 | 360 | 16.0 | 21.0 | 0.00 | 0.00 | 0.00 | 24 | 1008.6 |
| 20260509011530 | 69 | 9 | 18.0 | 25.0 | 0.00 | 0.00 | 0.00 | 25 | 1008.6 |
| 20260509010032 | 69 | 347 | 17.0 | 25.0 | 0.00 | 0.00 | 0.00 | 25 | 1008.6 |
| 20260509004538 | 70 | 355 | 18.0 | 23.0 | 0.00 | 0.00 | 0.00 | 25 | 1008.5 |
| 20260509003028 | 70 | 346 | 17.0 | 26.0 | 0.00 | 0.00 | 0.00 | 24 | 1008.4 |
| 20260509001532 | 71 | 324 | 15.0 | 23.0 | 0.00 | 0.00 | 0.00 | 22 | 1008.4 |
| 20260509000036 | 71 | 311 | 18.0 | 26.0 | 0.00 | 0.00 | 0.00 | 22 | 1008.3 |
| 20260508234531 | 71 | 298 | 14.0 | 28.0 | 0.00 | 0.00 | 0.00 | 23 | 1008.4 |
| 20260508233032 | 71 | 290 | 20.0 | 29.0 | 0.00 | 0.00 | 0.00 | 22 | 1008.3 |
| 20260508231530 | 72 | 323 | 20.0 | 28.0 | 0.00 | 0.00 | 0.00 | 19 | 1008.4 |
| 20260508230030 | 73 | 320 | 19.0 | 30.0 | 0.00 | 0.00 | 0.00 | 19 | 1008.5 |
| 20260508224532 | 72 | 348 | 14.0 | 32.0 | 0.00 | 0.00 | 0.00 | 19 | 1008.3 |
| 20260508223036 | 72 | 325 | 16.0 | 28.0 | 0.00 | 0.00 | 0.00 | 19 | 1008.5 |
| 20260508221536 | 73 | 306 | 22.0 | 31.0 | 0.00 | 0.00 | 0.00 | 19 | 1008.5 |
| 20260508220036 | 73 | 292 | 21.0 | 32.0 | 0.00 | 0.00 | 0.00 | 20 | 1008.5 |
| 20260508214528 | 73 | 306 | 21.0 | 32.0 | 0.00 | 0.00 | 0.00 | 21 | 1008.6 |
| 20260508213043 | 73 | 304 | 18.0 | 34.0 | 0.00 | 0.00 | 0.00 | 20 | 1008.4 |
| 20260508211533 | 73 | 346 | 20.0 | 34.0 | 0.00 | 0.00 | 0.00 | 17 | 1008.6 |
| 20260508210033 | 73 | 275 | 20.0 | 30.0 | 0.00 | 0.00 | 0.00 | 21 | 1008.6 |
| 20260508204532 | 73 | 317 | 17.0 | 30.0 | 0.00 | 0.00 | 0.00 | 21 | 1008.6 |
| 20260508203035 | 72 | 306 | 16.0 | 36.0 | 0.00 | 0.00 | 0.00 | 21 | 1008.7 |
| 20260508201533 | 73 | 276 | 20.0 | 31.0 | 0.00 | 0.00 | 0.00 | 20 | 1008.6 |
| 20260508200034 | 72 | 275 | 15.0 | 26.0 | 0.00 | 0.00 | 0.00 | 23 | 1008.8 |
| 20260508194530 | 70 | 315 | 13.0 | 24.0 | 0.00 | 0.00 | 0.00 | 28 | 1009.0 |
| 20260508193031 | 70 | 305 | 13.0 | 25.0 | 0.00 | 0.00 | 0.00 | 29 | 1009.1 |
| 20260508191532 | 70 | 333 | 11.0 | 23.0 | 0.00 | 0.00 | 0.00 | 28 | 1009.4 |
| 20260508190039 | 70 | 292 | 15.0 | 26.0 | 0.00 | 0.00 | 0.00 | 30 | 1009.7 |
| 20260508184530 | 69 | 288 | 16.0 | 24.0 | 0.00 | 0.00 | 0.00 | 29 | 1010.0 |
| 20260508183036 | 69 | 262 | 10.0 | 22.0 | 0.00 | 0.00 | 0.00 | 32 | 1010.1 |
| 20260508181551 | 68 | 265 | 11.0 | 26.0 | 0.00 | 0.00 | 0.00 | 32 | 1010.4 |
| 20260508180032 | 68 | 281 | 12.0 | 21.0 | 0.00 | 0.00 | 0.00 | 34 | 1010.5 |
| 20260508174531 | 67 | 272 | 13.0 | 19.0 | 0.00 | 0.00 | 0.00 | 36 | 1010.6 |
| 20260508173028 | 66 | 290 | 11.0 | 17.0 | 0.00 | 0.00 | 0.00 | 39 | 1010.7 |
| 20260508171529 | 65 | 244 | 9.0 | 15.0 | 0.00 | 0.00 | 0.00 | 42 | 1011.1 |
| 20260508170030 | 63 | 252 | 7.0 | 18.0 | 0.00 | 0.00 | 0.00 | 47 | 1011.2 |
| 20260508164538 | 62 | 261 | 10.0 | 17.0 | 0.00 | 0.00 | 0.00 | 49 | 1011.3 |
| 20260508163031 | 62 | 242 | 11.0 | 17.0 | 0.00 | 0.00 | 0.00 | 52 | 1011.4 |
| 20260508161528 | 61 | 254 | 11.0 | 17.0 | 0.00 | 0.00 | 0.00 | 54 | 1011.5 |
| 20260508160037 | 61 | 249 | 9.0 | 15.0 | 0.00 | 0.00 | 0.00 | 55 | 1011.7 |
| 20260508154530 | 59 | 215 | 9.0 | 16.0 | 0.00 | 0.00 | 0.00 | 56 | 1011.9 |
| 20260508153029 | 58 | 221 | 8.0 | 13.0 | 0.00 | 0.00 | 0.00 | 58 | 1012.0 |
| 20260508151529 | 56 | 238 | 8.0 | 13.0 | 0.00 | 0.00 | 0.00 | 63 | 1012.0 |
| 20260508150032 | 54 | 235 | 9.0 | 14.0 | 0.00 | 0.00 | 0.00 | 66 | 1012.3 |
| 20260508144531 | 53 | 245 | 10.0 | 16.0 | 0.00 | 0.00 | 0.00 | 68 | 1012.5 |
| 20260508143032 | 51 | 222 | 11.0 | 16.0 | 0.00 | 0.00 | 0.00 | 68 | 1012.4 |
| 20260508141545 | 51 | 241 | 10.0 | 17.0 | 0.00 | 0.00 | 0.00 | 68 | 1012.4 |
| 20260508140028 | 51 | 244 | 9.0 | 14.0 | 0.00 | 0.00 | 0.00 | 66 | 1012.5 |
| 20260508134528 | 53 | 260 | 6.0 | 9.0 | 0.00 | 0.00 | 0.00 | 66 | 1012.7 |
| 20260508133032 | 52 | 271 | 2.0 | 7.0 | 0.00 | 0.00 | 0.00 | 68 | 1012.5 |
| 20260508131530 | 49 | 265 | 5.0 | 7.0 | 0.00 | 0.00 | 0.00 | 70 | 1012.6 |
| 20260508130030 | 46 | 251 | 2.0 | 5.0 | 0.00 | 0.00 | 0.00 | 72 | 1012.6 |
| 20260508124528 | 45 | 328 | 1.0 | 4.0 | 0.00 | 0.00 | 0.00 | 71 | 1012.5 |
| 20260508123030 | 45 | 360 | 3.0 | 5.0 | 0.00 | 0.00 | 0.00 | 72 | 1012.4 |
| 20260508121530 | 45 | 293 | 4.0 | 7.0 | 0.00 | 0.00 | 0.00 | 71 | 1012.5 |
| 20260508120037 | 46 | 304 | 4.0 | 5.0 | 0.00 | 0.00 | 0.00 | 69 | 1012.5 |
| 20260508114529 | 47 | 294 | 4.0 | 6.0 | 0.00 | 0.00 | 0.00 | 67 | 1012.5 |
| 20260508113029 | 48 | 301 | 5.0 | 7.0 | 0.00 | 0.00 | 0.00 | 67 | 1012.6 |
| 20260508111539 | 47 | 325 | 3.0 | 6.0 | 0.00 | 0.00 | 0.00 | 66 | 1012.5 |
| 20260508110028 | 46 | 309 | 4.0 | 8.0 | 0.00 | 0.00 | 0.00 | 63 | 1012.7 |
| 20260508104530 | 46 | 305 | 6.0 | 9.0 | 0.00 | 0.00 | 0.00 | 62 | 1012.8 |
| 20260508103033 | 46 | 304 | 5.0 | 8.0 | 0.00 | 0.00 | 0.00 | 60 | 1013.0 |
| 20260508101539 | 45 | 302 | 4.0 | 9.0 | 0.00 | 0.00 | 0.00 | 59 | 1012.9 |
| 20260508100032 | 45 | 319 | 5.0 | 9.0 | 0.00 | 0.00 | 0.00 | 58 | 1012.8 |
| 20260508094529 | 44 | 304 | 6.0 | 9.0 | 0.00 | 0.00 | 0.00 | 57 | 1012.8 |
| 20260508093030 | 45 | 292 | 6.0 | 8.0 | 0.00 | 0.00 | 0.00 | 54 | 1012.7 |
| 20260508091531 | 47 | 302 | 4.0 | 10.0 | 0.00 | 0.00 | 0.00 | 51 | 1012.8 |
| 20260508090036 | 48 | 292 | 7.0 | 9.0 | 0.00 | 0.00 | 0.00 | 49 | 1012.8 |
| 20260508084530 | 49 | 315 | 4.0 | 8.0 | 0.00 | 0.00 | 0.00 | 48 | 1012.6 |
| 20260508083036 | 47 | 304 | 4.0 | 9.0 | 0.00 | 0.00 | 0.00 | 50 | 1012.7 |
| 20260508081530 | 49 | 323 | 5.0 | 8.0 | 0.00 | 0.00 | 0.00 | 50 | 1012.7 |
| 20260508080035 | 48 | 302 | 5.0 | 8.0 | 0.00 | 0.00 | 0.00 | 54 | 1012.7 |
| 20260508074529 | 47 | 283 | 3.0 | 8.0 | 0.00 | 0.00 | 0.00 | 55 | 1012.7 |
| 20260508073031 | 48 | 313 | 4.0 | 9.0 | 0.00 | 0.00 | 0.00 | 57 | 1012.6 |
| 20260508071530 | 48 | 279 | 7.0 | 15.0 | 0.00 | 0.00 | 0.00 | 58 | 1012.6 |
| 20260508070030 | 51 | 302 | 4.0 | 7.0 | 0.00 | 0.00 | 0.00 | 52 | 1012.3 |
| 20260508064539 | 50 | 290 | 4.0 | 6.0 | 0.00 | 0.00 | 0.00 | 55 | 1012.5 |